CST,Max TemperatureF,Mean TemperatureF,Min TemperatureF,Max Dew PointF,MeanDew PointF,Min DewpointF,Max Humidity, Mean Humidity, Min Humidity, Max Sea Level PressureIn, Mean Sea Level PressureIn, Min Sea Level PressureIn, Max VisibilityMiles, Mean VisibilityMiles, Min VisibilityMiles, Max Wind SpeedMPH, Mean Wind SpeedMPH, Max Gust SpeedMPH,PrecipitationIn, CloudCover, Events, WindDirDegrees
2013-11-1,54,48,41,40,39,36,89,70,50,29.86,29.67,29.51,10,10,10,21,11,25,T,6,,283
2013-11-2,53,41,29,39,35,28,100,74,48,30.15,30.03,29.84,10,10,8,22,9,29,0.00,3,,311
2013-11-3,55,42,28,36,31,26,92,67,41,30.18,30.08,29.96,10,10,10,31,17,38,0.00,0,,140
2013-11-4,52,48,44,46,42,34,92,76,60,30.16,30.01,29.94,10,10,6,26,12,33,0.14,7,Rain,183
2013-11-5,57,49,40,56,47,38,100,95,89,30.20,29.97,29.78,10,6,2,22,10,28,0.76,8,Rain,107
2013-11-6,45,37,28,41,31,23,100,75,49,30.27,30.08,29.82,10,10,6,26,14,33,0.01,4,Rain,316
2013-11-7,47,37,26,33,28,23,100,75,49,30.32,30.28,30.22,10,10,10,22,9,28,0.00,2,,271
2013-11-8,52,37,21,37,28,20,92,67,42,30.29,30.03,29.79,10,10,10,30,13,39,0.00,0,,165
2013-11-9,54,44,33,38,35,28,79,63,46,30.30,30.04,29.81,10,10,10,28,14,33,0.00,1,,280
2013-11-10,46,35,23,32,28,22,92,75,57,30.43,30.32,30.16,10,10,10,13,7,16,0.00,3,,238
2013-11-11,46,31,16,33,23,11,82,72,62,30.73,30.37,30.10,10,8,1,26,15,33,T,6,Snow,341
2013-11-12,28,18,7,13,10,5,92,69,46,30.87,30.77,30.61,10,10,10,14,7,16,0.00,0,,285
2013-11-13,48,33,18,20,15,11,73,54,34,30.60,30.30,30.05,10,10,10,26,15,32,0.00,0,,198
2013-11-14,51,42,33,29,25,19,70,54,38,30.03,29.94,29.89,10,10,10,20,11,24,0.00,1,,217
2013-11-15,55,47,39,35,31,26,92,69,46,29.94,29.84,29.74,10,10,10,14,7,,0.00,0,,185
2013-11-16,63,51,39,56,48,36,100,87,74,29.72,29.49,29.32,10,7,2,28,14,33,0.02,5,Rain,169
2013-11-17,50,44,37,50,43,34,100,88,76,29.93,29.51,29.28,10,7,0,28,13,35,0.43,6,Fog-Rain,307
2013-11-18,42,33,24,34,30,25,92,77,62,30.30,30.17,29.94,10,10,8,23,11,29,0.00,1,,292
2013-11-19,48,36,23,33,28,23,100,77,53,30.30,30.19,30.05,10,10,7,23,15,30,0.00,2,,136
2013-11-20,41,39,36,37,33,26,100,78,55,30.05,30.00,29.93,10,8,5,23,16,30,0.02,8,Rain,151
2013-11-21,39,34,28,37,32,26,100,96,92,30.43,30.22,30.05,9,4,2,23,12,27,0.04,8,Rain-Snow,352
2013-11-22,28,20,11,26,18,7,92,80,68,30.64,30.53,30.40,10,8,1,24,12,30,0.01,4,Snow,320
2013-11-23,18,10,1,10,4,-2,87,72,56,30.85,30.79,30.62,10,10,10,24,12,28,0.00,0,,326
2013-11-24,25,12,-1,11,6,-3,95,73,50,30.79,30.57,30.28,10,10,10,23,12,29,0.00,0,,195
2013-11-25,33,26,19,26,21,12,100,80,59,30.25,30.14,30.09,10,7,1,23,13,30,T,5,Snow,229
2013-11-26,30,20,10,24,14,6,92,71,50,30.38,30.25,30.14,10,10,10,32,16,39,0.00,4,,321
2013-11-27,23,14,4,12,7,1,91,74,56,30.42,30.31,30.12,10,10,10,16,8,20,0.00,0,,249
2013-11-28,31,21,10,18,13,7,88,73,58,30.55,30.32,30.09,10,10,10,22,8,25,0.00,0,,316
2013-11-29,34,21,7,23,16,3,92,77,61,30.57,30.45,30.26,10,10,10,20,9,24,0.00,0,,144
2013-11-30,45,34,23,32,26,20,100,79,57,30.22,30.13,30.06,10,10,8,15,8,18,0.00,0,,227